Temperature
20 19 19 19 19 19 19 19 19 19 19 19 19 18 19 19 19 19 19 19 18 18 19 18 18 18 18 19 19 18 19 18 18 18 18 18 18 18 18 18 18 18 18
20 19 19 19 19 19 19 19 19 19 19 19 19 18 18 18 18 18 18 18 18 18 18 18 18 18 18 18 18 18 18 18 18 18 18 18 18 18 18 18 18 18 18
20 19 19 19 19 19 19 19 19 19 19 19 18 18 18 18 18 18 18 18 18 18 18 18 18 18 18 18 18 18 18 18 18 18 18 18 18 18 18 18 18 18 18
20 19 19 19 19 19 19 19 19 19 19 18 18 18 18 18 18 18 18 18 18 18 18 18 18 18 18 18 18 18 18 18 18 18 18 18 18 18 18 18 18 18 18
20 19 19 19 19 19 19 19 18 18 18 18 18 18 18 18 18 18 18 18 18 18 18 18 18 18 18 18 18 18 18 18 18 18 17 17 17 18 18 18 18 18 17
20 19 19 19 19 19 19 18 18 18 18 18 18 18 18 18 18 18 18 18 18 18 18 18 18 18 18 18 18 18 18 18 18 18 18 18 18 18 18 18 17 17 17
20 19 19 19 19 19 19 18 18 18 18 18 18 18 18 18 18 18 18 18 18 18 18 18 18 18 18 18 18 18 18 18 18 18 18 17 17 18 18 18 17 17 17
20 20 19 19 19 19 19 18 18 18 18 18 18 18 18 18 18 18 18 18 18 18 18 18 18 18 18 18 18 18 18 18 17 18 18 17 17 18 18 18 17 17 17
20 20 19 19 19 19 18 18 18 18 18 18 18 18 18 18 18 18 18 18 18 18 18 18 18 18 18 18 18 18 18 18 18 18 18 17 17 17 17 17 17 17 17
20 19 19 19 19 19 18 18 18 18 18 18 18 18 18 18 18 18 18 18 18 18 18 18 18 18 18 18 18 18 18 18 18 18 17 17 18 18 17 17 17 17 17
20 19 19 19 19 19 19 18 18 18 18 18 18 18 18 18 18 18 18 18 18 18 18 18 18 18 18 18 18 18 18 18 18 18 17 17 18 17 18 17 17 17 17
20 20 19 19 19 19 19 19 18 18 18 18 18 18 18 18 18 18 18 18 18 18 18 18 18 18 18 18 18 18 18 18 18 18 17 17 18 17 17 17 17 17 17
20 20 19 19 19 19 19 19 18 18 18 18 18 18 18 18 18 18 18 18 18 18 18 18 18 18 18 18 18 18 18 18 18 18 17 18 17 17 17 17 17 17 17
20 20 19 19 19 18 19 19 18 18 18 18 18 18 18 18 18 18 18 18 18 18 18 18 18 18 18 18 18 18 18 18 18 18 17 18 17 17 17 17 17 17 17
20 20 19 19 19 19 18 18 18 18 18 18 18 18 18 18 18 18 18 18 18 18 18 18 18 18 18 18 18 18 18 18 18 18 17 18 17 17 17 17 17 17 17
20 20 19 19 19 19 19 18 18 18 18 18 18 18 18 18 18 18 18 18 18 18 18 18 18 18 18 18 17 17 17 17 17 17 17 18 18 17 17 17 17 17 17
20 20 19 19 19 19 19 18 18 18 18 18 18 18 18 18 18 18 18 18 18 18 18 18 18 18 18 18 18 18 18 17 17 17 17 17 17 17 17 17 17 17 17
20 19 19 19 19 19 19 19 18 18 18 18 18 18 18 18 18 18 18 18 18 18 18 18 18 18 18 18 18 18 18 18 17 17 17 17 17 17 17 17 17 17 17
20 20 19 19 19 19 19 19 18 18 18 18 18 18 18 18 18 18 18 18 18 18 18 18 18 18 18 18 18 18 18 18 18 18 17 17 17 17 17 17 17 17 17
20 20 20 19 19 19 19 19 18 18 18 18 18 18 18 18 18 18 18 18 18 18 18 18 17 17 18 18 18 18 18 18 18 18 18 18 17 17 17 17 17 17 17
20 20 20 19 19 19 19 19 19 18 18 18 18 18 18 18 18 18 18 18 18 18 18 18 18 18 18 18 18 18 18 18 18 18 18 18 18 17 17 17 17 17 17
20 20 20 20 19 19 19 19 19 19 18 18 18 18 18 18 18 18 18 18 18 18 18 18 18 18 18 18 18 19 19 19 18 18 18 18 18 17 17 17 17 17 17
20 20 20 20 20 19 19 19 19 19 19 19 18 18 18 18 18 18 18 18 18 18 18 18 18 17 18 18 18 18 19 19 19 18 18 18 17 17 17 17 17 17 16
21 20 20 20 20 20 19 19 19 19 19 18 18 18 18 18 18 18 18 18 18 17 18 17 17 17 17 18 18 17 18 18 18 19 18 18 17 17 17 17 17 16 16
21 20 20 20 20 20 20 19 19 19 19 18 18 18 18 18 18 18 18 18 18 17 17 17 17 17 17 17 17 17 17 17 18 18 18 18 18 17 17 17 16 16 16
21 20 20 20 20 20 19 19 19 19 19 18 18 18 18 18 18 18 17 17 17 17 17 17 17 17 17 17 17 17 17 17 18 18 18 18 18 18 17 16 16 16 16
Wind_Speed
2 3 5 1 2 2 2 3 3 4 5 5 6 6 7 7 7 7 7 7 7 8 8 8 7 7 6 6 7 8 9 10 11 11 11 11 10 10 10 10 10 9 10
3 2 4 2 2 2 2 3 3 4 4 5 5 6 7 7 7 6 6 6 7 7 7 7 7 7 6 5 7 9 10 11 11 12 12 11 11 10 10 9 7 7 11
3 2 3 3 2 2 2 3 4 4 4 4 5 5 6 7 6 6 6 6 6 6 6 6 6 6 5 5 6 8 10 10 11 12 12 9 10 11 10 9 8 8 10
3 2 3 3 2 2 2 3 4 3 4 4 5 5 6 6 6 6 6 6 5 6 6 5 6 6 5 5 6 7 9 10 10 11 9 7 7 10 10 9 9 9 10
3 3 5 3 2 2 1 3 3 3 3 4 4 5 5 5 5 5 5 5 4 4 5 5 5 5 5 5 6 6 8 9 10 10 7 6 6 9 9 9 9 9 10
4 3 5 3 2 2 2 3 4 3 3 3 4 4 4 4 4 4 4 4 3 3 4 5 5 5 6 6 6 6 6 8 9 7 6 5 5 9 9 9 9 9 10
4 4 5 5 3 2 2 3 3 3 3 3 4 4 3 3 3 3 4 4 3 3 4 4 4 5 6 6 7 6 6 5 6 5 5 4 5 7 8 8 8 9 9
5 4 5 6 4 4 3 3 3 4 4 4 4 3 3 3 3 4 4 3 3 3 3 4 4 5 6 6 7 7 7 6 5 5 4 4 6 7 8 8 7 7 8
6 5 4 4 5 4 4 3 4 4 5 4 4 4 4 4 4 4 4 3 3 2 3 3 3 3 5 5 6 7 7 5 4 3 4 4 7 8 8 7 7 7 7
6 5 5 5 5 3 4 5 4 4 5 5 5 4 4 4 5 5 4 4 3 2 3 3 3 3 4 5 6 6 6 6 4 4 4 5 7 6 6 6 6 7 7
5 5 5 6 5 5 5 5 4 5 6 5 5 5 3 3 3 4 5 4 3 3 3 3 3 3 4 7 7 6 6 5 4 2 3 6 7 6 6 6 5 6 8
5 5 5 6 5 5 5 4 3 4 5 4 4 3 3 3 2 3 6 5 4 3 4 5 4 5 5 5 7 7 5 5 4 3 4 6 7 6 6 6 6 6 8
4 5 5 5 5 5 4 4 4 4 4 4 5 4 3 3 3 3 3 4 3 3 2 5 4 3 2 2 2 3 2 2 3 3 5 7 7 6 6 6 6 6 7
4 5 5 4 4 4 4 4 4 4 4 4 4 4 3 3 3 3 2 3 2 2 2 1 2 3 2 2 2 2 2 2 2 2 5 8 6 6 6 6 6 6 5
4 4 4 4 4 4 4 3 4 4 4 4 4 5 4 3 3 3 3 2 2 2 2 2 2 2 2 2 1 1 1 1 2 2 4 8 7 6 5 5 6 6 5
3 4 4 4 4 4 3 3 3 3 3 3 4 5 4 3 3 2 2 2 2 2 2 1 2 2 1 2 1 1 0 0 1 2 2 6 8 6 5 5 5 5 5
3 4 3 4 4 4 4 3 3 3 4 4 4 5 4 3 2 1 2 2 3 2 2 1 2 1 1 2 1 1 0 0 0 1 2 2 5 8 7 6 5 5 5
2 3 3 3 4 4 3 3 3 4 4 3 3 4 4 4 3 1 2 3 2 2 2 1 1 2 1 1 1 0 0 1 0 1 2 2 2 3 6 7 6 5 6
2 2 2 3 3 3 3 3 3 3 2 2 3 4 3 3 3 2 2 3 2 2 2 2 3 1 1 1 1 1 0 0 0 1 2 2 2 2 2 6 8 6 6
3 2 2 2 2 2 2 2 2 2 2 2 3 3 3 3 3 2 2 2 2 2 2 3 2 1 1 1 0 1 0 1 0 0 1 1 2 3 3 3 4 6 7
3 2 1 1 2 1 1 1 1 2 2 2 2 3 3 3 2 2 2 2 1 2 2 2 1 1 1 1 1 1 1 2 2 1 0 1 1 0 1 1 2 2 4
3 3 2 2 2 1 1 1 1 1 1 2 2 3 3 3 2 2 2 1 2 2 2 2 1 1 1 1 2 2 0 2 2 2 1 1 0 0 1 1 1 1 2
3 3 2 2 2 2 1 1 1 2 1 1 1 1 2 2 2 2 2 2 2 1 2 2 1 1 2 1 2 2 2 1 1 2 1 0 1 1 1 1 1 1 2
4 3 3 3 2 2 2 2 2 1 0 0 0 1 1 1 1 1 1 1 1 1 1 1 2 1 2 1 0 1 2 2 2 1 2 1 1 1 1 2 1 1 1
4 4 4 3 3 2 2 2 3 2 1 1 1 1 0 1 0 0 0 1 1 1 1 2 2 3 2 2 2 1 1 2 3 3 2 2 1 1 1 1 1 1 1
4 4 4 4 3 3 3 3 3 2 2 1 1 0 1 1 0 0 0 1 1 1 1 1 2 2 3 3 3 3 2 2 2 3 3 3 3 2 1 1 2 1 1
Wind_Direction
42 62 104 161 155 161 158 154 158 160 160 160 164 166 165 163 158 156 156 158 160 164 166 164 164 164 166 171 172 172 170 170 168 166 168 171 168 169 171 176 182 174 159
31 65 119 165 165 165 168 167 158 155 154 160 164 166 164 158 153 152 158 163 164 165 168 168 167 167 169 169 171 171 168 168 169 169 171 173 172 173 177 179 187 165 160
36 79 136 128 134 154 160 156 148 147 150 154 159 161 158 156 155 157 160 165 165 168 169 168 167 170 167 161 167 168 168 170 173 175 182 180 169 168 175 177 177 170 166
41 77 90 79 88 122 148 153 152 148 145 142 153 158 158 155 158 161 164 167 170 174 171 169 171 170 164 159 164 168 170 171 178 186 185 177 169 159 170 176 178 176 176
52 50 82 59 60 82 121 139 141 141 139 138 147 154 152 151 157 163 164 167 167 169 171 172 175 175 169 171 169 171 177 177 184 196 180 174 167 154 170 179 182 181 183
56 53 82 65 44 64 95 121 129 135 140 138 137 139 139 150 162 167 165 157 154 162 175 178 179 180 177 179 175 175 178 188 196 187 178 174 163 155 176 185 185 187 189
49 52 79 75 51 48 84 102 116 130 133 125 121 124 130 143 157 162 156 162 162 162 169 170 177 183 180 179 176 176 176 189 199 179 175 177 161 162 181 188 193 192 192
49 53 77 103 74 59 64 74 88 108 116 117 117 120 123 124 133 144 153 157 164 165 163 166 175 184 180 180 178 180 181 200 187 179 179 175 161 179 191 192 194 195 194
47 47 54 78 93 95 91 85 82 103 110 113 109 111 116 118 128 138 153 157 158 161 165 165 163 158 173 175 174 175 178 195 210 181 179 169 161 183 194 194 193 198 196
46 40 40 52 55 59 82 94 95 114 117 115 110 106 118 132 139 146 157 133 126 128 141 152 161 156 160 161 161 167 176 200 202 191 183 159 153 179 196 195 195 202 200
48 45 38 44 48 44 45 67 96 123 127 133 122 124 147 125 123 138 103 103 116 124 129 135 135 165 176 162 163 170 192 194 176 191 179 145 165 184 191 194 201 217 209
46 48 48 41 41 47 43 51 67 87 94 92 83 85 80 87 94 96 113 121 118 130 150 144 151 174 195 164 162 183 191 178 175 177 154 155 179 188 191 192 202 216 204
51 49 54 53 37 38 47 48 61 77 82 86 81 72 77 80 90 91 97 117 122 143 138 140 162 155 148 133 162 174 169 181 167 167 148 156 175 188 196 196 203 205 202
55 52 50 51 58 43 38 45 58 68 74 73 73 62 68 72 64 67 69 64 72 98 111 119 128 117 118 128 153 164 167 181 165 158 146 157 174 191 199 198 200 206 207
66 55 56 50 53 55 52 41 57 58 61 70 61 62 60 68 66 62 52 54 59 80 108 106 99 103 112 118 137 136 168 195 190 185 148 155 174 192 203 205 203 211 214
74 66 60 61 70 64 60 56 58 69 78 67 63 65 63 65 64 59 62 55 54 56 59 68 99 121 132 121 129 130 227 216 174 200 180 162 174 187 200 201 200 205 210
76 69 67 74 72 71 65 63 68 65 70 66 65 64 60 67 77 67 62 61 50 55 69 76 80 105 128 129 115 105 137 202 145 211 208 196 177 179 187 193 199 207 212
80 82 67 67 77 75 72 68 71 60 60 59 62 65 58 51 54 44 58 54 44 50 58 74 60 71 72 85 91 51 148 149 185 206 202 193 194 182 178 182 196 206 212
109 106 96 71 73 74 83 95 92 83 69 53 55 57 58 51 44 33 42 43 32 38 46 38 66 46 68 56 104 134 104 113 171 215 203 200 190 209 206 169 189 200 202
127 126 118 107 89 93 105 105 93 85 78 63 56 57 55 60 54 33 59 55 37 48 46 47 58 56 12 328 17 77 71 88 107 81 229 182 193 215 214 207 201 195 196
146 144 137 114 105 113 106 103 93 94 86 73 66 61 59 54 58 42 40 67 52 68 57 53 43 93 24 333 268 171 155 147 122 125 78 26 96 171 221 225 248 239 195
163 167 168 167 149 162 126 116 90 68 84 84 69 71 63 59 43 56 47 36 60 75 78 57 39 348 29 19 320 307 200 159 171 129 121 147 13 303 250 223 232 234 260
176 179 176 176 174 187 191 177 145 148 148 111 92 90 67 57 57 42 38 23 40 46 63 39 25 7 339 351 354 325 310 357 348 155 150 113 6 349 311 312 249 246 269
184 178 179 183 181 188 196 196 194 189 161 87 136 93 85 76 63 56 36 32 19 32 51 343 45 355 329 330 10 340 333 342 301 276 193 171 200 293 311 305 305 271 286
180 178 175 177 185 192 198 193 209 215 203 188 173 130 185 122 87 9 12 3 359 14 33 3 352 334 333 332 327 308 286 258 267 283 295 293 260 248 278 294 306 281 293
181 182 177 171 184 195 199 200 213 224 232 243 240 220 223 185 194 5 323 329 318 347 2 316 317 333 334 331 314 308 304 299 306 298 288 288 294 287 281 303 294 295 294
Height
1503 1502 1499 1498 1497 1496 1496 1496 1496 1496 1497 1498 1499 1501 1502 1504 1505 1506 1507 1508 1508 1509 1510 1511 1512 1512 1512 1512 1512 1512 1512 1513 1515 1518 1520 1523 1525 1526 1528 1529 1531 1532 1533
1503 1501 1498 1497 1497 1496 1496 1496 1496 1497 1497 1498 1499 1501 1502 1503 1504 1505 1506 1507 1508 1509 1510 1511 1511 1512 1512 1512 1511 1511 1512 1513 1516 1518 1520 1522 1524 1526 1527 1529 1530 1532 1532
1503 1501 1499 1497 1496 1496 1495 1496 1496 1497 1498 1498 1499 1500 1502 1503 1504 1505 1506 1507 1508 1509 1510 1510 1511 1511 1511 1511 1511 1512 1512 1514 1516 1518 1520 1523 1524 1525 1527 1528 1529 1530 1532
1503 1501 1499 1497 1496 1496 1496 1496 1497 1497 1498 1499 1499 1500 1501 1502 1503 1504 1505 1506 1507 1508 1509 1510 1510 1511 1511 1511 1512 1512 1513 1514 1516 1518 1521 1523 1524 1525 1526 1527 1528 1530 1531
1504 1503 1500 1498 1497 1497 1496 1497 1497 1498 1498 1499 1499 1500 1501 1502 1503 1504 1505 1506 1507 1508 1509 1509 1510 1511 1511 1512 1512 1513 1513 1515 1516 1519 1521 1523 1524 1524 1525 1527 1528 1529 1530
1505 1503 1501 1499 1498 1497 1497 1497 1497 1497 1498 1499 1500 1501 1501 1501 1502 1503 1504 1505 1507 1508 1508 1509 1510 1510 1511 1511 1512 1513 1513 1515 1516 1519 1521 1522 1523 1523 1525 1526 1527 1528 1529
1506 1504 1502 1500 1499 1498 1498 1498 1497 1497 1498 1499 1500 1501 1501 1500 1500 1501 1503 1505 1507 1508 1508 1509 1509 1510 1511 1511 1512 1513 1514 1515 1516 1519 1521 1522 1523 1523 1524 1525 1526 1527 1528
1507 1505 1504 1501 1500 1499 1498 1498 1497 1498 1498 1499 1500 1501 1501 1500 1499 1500 1503 1505 1507 1508 1508 1509 1510 1510 1510 1511 1512 1512 1514 1514 1517 1519 1520 1521 1522 1522 1523 1524 1525 1525 1527
1508 1507 1506 1505 1503 1501 1500 1498 1498 1498 1499 1500 1501 1502 1502 1502 1501 1502 1504 1505 1507 1508 1509 1509 1510 1510 1510 1510 1511 1512 1513 1515 1517 1519 1520 1520 1520 1521 1522 1523 1523 1524 1525
1510 1509 1507 1506 1505 1503 1502 1499 1498 1498 1500 1501 1502 1503 1504 1504 1504 1505 1506 1507 1508 1509 1509 1510 1510 1510 1510 1511 1511 1512 1513 1515 1517 1518 1519 1519 1519 1520 1521 1521 1522 1523 1524
1512 1510 1509 1508 1506 1505 1503 1500 1498 1499 1500 1503 1504 1504 1506 1507 1508 1508 1508 1508 1508 1509 1510 1510 1510 1510 1511 1511 1512 1513 1514 1516 1517 1518 1519 1518 1519 1519 1519 1520 1521 1521 1519
1514 1512 1511 1510 1508 1507 1504 1501 1500 1501 1503 1504 1506 1506 1508 1508 1509 1509 1509 1509 1509 1510 1510 1510 1510 1511 1512 1513 1514 1514 1515 1516 1517 1518 1518 1517 1518 1518 1519 1519 1519 1518 1515
1515 1514 1513 1511 1510 1509 1507 1504 1503 1504 1505 1507 1508 1508 1509 1510 1511 1511 1511 1511 1511 1511 1512 1511 1512 1513 1513 1514 1515 1515 1516 1517 1517 1517 1517 1517 1517 1518 1518 1518 1518 1518 1516
1517 1516 1515 1513 1512 1510 1509 1507 1507 1507 1508 1509 1510 1511 1512 1512 1512 1512 1512 1512 1513 1512 1512 1512 1512 1513 1513 1514 1515 1515 1516 1516 1517 1517 1516 1516 1517 1517 1518 1518 1518 1518 1518
1518 1517 1516 1515 1514 1513 1512 1511 1511 1511 1511 1512 1512 1513 1513 1513 1513 1513 1513 1513 1514 1514 1514 1513 1513 1514 1514 1514 1515 1516 1516 1516 1516 1516 1516 1515 1516 1516 1517 1518 1518 1518 1518
1520 1519 1518 1517 1516 1515 1514 1514 1514 1514 1514 1514 1514 1515 1514 1514 1514 1514 1514 1514 1515 1515 1515 1514 1514 1514 1515 1515 1515 1515 1516 1516 1516 1515 1516 1515 1515 1516 1516 1517 1517 1517 1518
1521 1520 1519 1518 1518 1517 1516 1516 1516 1516 1517 1516 1516 1516 1516 1516 1515 1515 1516 1516 1515 1515 1515 1515 1515 1515 1515 1516 1516 1516 1516 1515 1515 1515 1515 1515 1516 1515 1515 1516 1516 1517 1517
1521 1520 1520 1520 1519 1518 1518 1517 1518 1518 1518 1518 1518 1518 1517 1517 1517 1516 1517 1517 1516 1516 1516 1516 1516 1516 1516 1516 1516 1516 1516 1515 1515 1515 1515 1515 1515 1516 1515 1515 1515 1515 1516
1521 1521 1521 1521 1520 1520 1519 1519 1519 1519 1519 1519 1519 1519 1518 1518 1518 1518 1517 1517 1517 1517 1517 1517 1517 1517 1517 1516 1516 1516 1516 1515 1515 1515 1515 1515 1515 1515 1515 1514 1514 1514 1514
1522 1522 1522 1521 1521 1521 1521 1520 1520 1520 1520 1520 1520 1520 1519 1519 1518 1518 1518 1517 1517 1518 1517 1517 1517 1516 1517 1516 1517 1516 1516 1515 1515 1514 1514 1515 1514 1514 1514 1514 1514 1513 1512
1522 1522 1522 1522 1522 1521 1522 1522 1521 1521 1521 1521 1521 1520 1520 1519 1519 1518 1519 1518 1517 1517 1517 1517 1517 1517 1517 1516 1517 1516 1516 1515 1515 1514 1514 1514 1514 1513 1513 1512 1513 1512 1511
1522 1522 1522 1522 1522 1522 1522 1522 1522 1522 1522 1521 1521 1520 1520 1520 1519 1519 1518 1518 1517 1517 1517 1516 1516 1517 1517 1516 1516 1516 1515 1516 1515 1514 1514 1513 1513 1513 1512 1512 1511 1510 1510
1522 1522 1522 1522 1522 1522 1522 1522 1522 1522 1522 1522 1521 1521 1520 1520 1519 1519 1518 1518 1517 1517 1517 1516 1516 1516 1516 1516 1516 1516 1515 1514 1514 1514 1513 1513 1512 1511 1511 1511 1510 1509 1508
1521 1522 1521 1521 1521 1521 1521 1522 1522 1522 1522 1521 1521 1521 1520 1520 1519 1519 1518 1518 1517 1517 1517 1517 1516 1516 1515 1516 1515 1514 1515 1514 1514 1513 1513 1512 1511 1510 1509 1509 1508 1507 1506
1520 1520 1520 1520 1520 1520 1520 1521 1521 1521 1521 1521 1521 1520 1520 1520 1519 1519 1518 1517 1517 1517 1516 1516 1515 1515 1515 1515 1514 1514 1514 1513 1513 1513 1512 1511 1510 1509 1508 1508 1507 1506 1505
1518 1519 1520 1519 1519 1519 1519 1520 1520 1520 1520 1520 1520 1520 1520 1520 1519 1518 1518 1517 1516 1516 1515 1515 1514 1514 1513 1513 1513 1513 1513 1513 1512 1511 1511 1510 1509 1509 1507 1506 1505 1505 1504